DLH4WC EDDF-EPGD

Flight info

Callsign DLH4WC
Flight time 1h 14m
Altitude 35000
Route TOBAK3G TOBAK N858 FEDZA Y172 MAG DCT BODLA DCT UNVOX L730 KOSEX
Aircraft A321/M-SDE2E3FGIJ1LORWXYZ/HB1

Departure

Time 2026-05-04 04:50
Airport Frankfurt Main Airport (EDDF)

Arrival

Time 2026-05-04 06:05
Airport Gdańsk Lech Wałęsa Airport (EPGD)
Time Latitude Longitude Altitude Speed Heading
2026-05-04 04:14 50.04406 8.56222 363 ft 0 kts 159°
2026-05-04 04:35 50.04407 8.56222 363 ft 1 kts 158°
2026-05-04 04:36 50.04421 8.56214 363 ft 2 kts 161°
2026-05-04 04:36 50.04435 8.56206 363 ft 2 kts 158°
2026-05-04 04:36 50.04449 8.56202 363 ft 2 kts 188°
2026-05-04 04:36 50.04464 8.56209 363 ft 2 kts 210°
2026-05-04 04:37 50.04483 8.56247 363 ft 0 kts 250°
2026-05-04 04:41 50.04481 8.56243 363 ft 0 kts 250°
2026-05-04 04:41 50.04478 8.56228 363 ft 1 kts 250°
2026-05-04 04:42 50.04473 8.56204 363 ft 2 kts 250°
2026-05-04 04:42 50.04465 8.56171 363 ft 3 kts 250°
2026-05-04 04:42 50.04455 8.56129 363 ft 4 kts 250°
2026-05-04 04:42 50.04442 8.56077 363 ft 5 kts 250°
2026-05-04 04:43 50.04400 8.56030 363 ft 9 kts 184°
2026-05-04 04:43 50.04338 8.56057 363 ft 8 kts 156°
2026-05-04 04:43 50.04286 8.56067 363 ft 7 kts 191°
2026-05-04 04:43 50.04232 8.56039 363 ft 8 kts 186°
2026-05-04 04:44 50.04174 8.56066 363 ft 9 kts 160°
2026-05-04 04:44 50.04115 8.56107 363 ft 9 kts 136°
2026-05-04 04:44 50.04107 8.56203 363 ft 9 kts 75°
2026-05-04 04:44 50.04132 8.56305 363 ft 10 kts 69°
2026-05-04 04:45 50.04162 8.56430 363 ft 14 kts 70°
2026-05-04 04:45 50.04200 8.56593 363 ft 13 kts 69°
2026-05-04 04:45 50.04222 8.56682 363 ft 7 kts 69°
2026-05-04 04:47 50.04218 8.56775 363 ft 0 kts 178°
2026-05-04 04:48 50.04216 8.56775 363 ft 0 kts 178°
2026-05-04 04:49 50.04045 8.56731 363 ft 7 kts 235°
2026-05-04 04:49 50.04032 8.56688 363 ft 0 kts 249°
2026-05-04 04:49 50.04030 8.56676 363 ft 2 kts 249°
2026-05-04 04:49 50.03955 8.56370 363 ft 69 kts 250°
2026-05-04 04:50 50.03691 8.55259 363 ft 144 kts 249°
2026-05-04 04:50 50.03294 8.53575 720 ft 174 kts 249°
2026-05-04 04:50 50.02876 8.51848 1511 ft 174 kts 250°
2026-05-04 04:50 50.02635 8.50006 2083 ft 177 kts 269°
2026-05-04 04:51 50.02764 8.47994 2359 ft 192 kts 276°
2026-05-04 04:51 50.02929 8.45828 2630 ft 209 kts 273°
2026-05-04 04:51 50.02891 8.43462 2901 ft 229 kts 262°
2026-05-04 04:51 50.02628 8.40879 3270 ft 247 kts 259°
2026-05-04 04:52 50.02419 8.38182 3856 ft 257 kts 274°
2026-05-04 04:52 50.02983 8.35529 4650 ft 260 kts 303°
2026-05-04 04:52 50.04293 8.33620 5444 ft 264 kts 326°
2026-05-04 04:52 50.05912 8.32244 6223 ft 266 kts 329°
2026-05-04 04:53 50.07552 8.30922 6934 ft 269 kts 329°
2026-05-04 04:53 50.09233 8.29550 7640 ft 273 kts 328°
2026-05-04 04:53 50.10899 8.28179 8328 ft 277 kts 330°
2026-05-04 04:53 50.12794 8.27354 8978 ft 288 kts 356°
2026-05-04 04:54 50.14758 8.27988 9619 ft 298 kts 22°
2026-05-04 04:54 50.16604 8.29519 10276 ft 302 kts 28°
2026-05-04 04:54 50.18455 8.31203 10630 ft 317 kts 28°
2026-05-04 04:54 50.20425 8.32981 10922 ft 333 kts 28°
2026-05-04 04:55 50.22514 8.34822 11206 ft 349 kts 27°
2026-05-04 04:55 50.24678 8.36697 11551 ft 362 kts 27°
2026-05-04 04:55 50.26876 8.38600 12123 ft 366 kts 28°
2026-05-04 04:55 50.29065 8.40759 12733 ft 371 kts 33°
2026-05-04 04:56 50.31108 8.43216 13307 ft 375 kts 39°
2026-05-04 04:56 50.33110 8.45941 13893 ft 379 kts 40°
2026-05-04 04:56 50.35089 8.48719 14455 ft 383 kts 41°
2026-05-04 04:56 50.37067 8.51500 15007 ft 386 kts 40°
2026-05-04 04:57 50.39079 8.54319 15547 ft 390 kts 40°
2026-05-04 04:57 50.41130 8.57184 16078 ft 394 kts 40°
2026-05-04 04:57 50.43192 8.60057 16599 ft 398 kts 40°
2026-05-04 04:57 50.45272 8.62934 17127 ft 401 kts 39°
2026-05-04 04:58 50.47423 8.65779 17644 ft 404 kts 39°
2026-05-04 04:58 50.49594 8.68606 18130 ft 407 kts 39°
2026-05-04 04:58 50.51788 8.71471 18617 ft 410 kts 39°
2026-05-04 04:58 50.54008 8.74390 19083 ft 414 kts 39°
2026-05-04 04:59 50.56141 8.77476 19540 ft 417 kts 46°
2026-05-04 04:59 50.57983 8.81011 19983 ft 421 kts 56°
2026-05-04 04:59 50.59515 8.84938 20423 ft 423 kts 62°
2026-05-04 04:59 50.60931 8.89043 20855 ft 426 kts 63°
2026-05-04 05:00 50.62344 8.93231 21278 ft 429 kts 63°
2026-05-04 05:00 50.63744 8.97359 21682 ft 433 kts 62°
2026-05-04 05:00 50.66647 9.05810 22489 ft 438 kts 62°
2026-05-04 05:01 50.68115 9.10064 22883 ft 441 kts 62°
2026-05-04 05:01 50.69592 9.14345 23257 ft 444 kts 62°
2026-05-04 05:01 50.71079 9.18659 23633 ft 447 kts 62°
2026-05-04 05:01 50.72517 9.22997 24012 ft 449 kts 63°
2026-05-04 05:02 50.73924 9.27425 24378 ft 451 kts 64°
2026-05-04 05:02 50.75337 9.31923 24733 ft 453 kts 64°
2026-05-04 05:02 50.76736 9.36397 25059 ft 456 kts 64°
2026-05-04 05:02 50.78146 9.40908 25389 ft 459 kts 64°
2026-05-04 05:03 50.79566 9.45453 25724 ft 461 kts 64°
2026-05-04 05:03 50.81000 9.50051 26058 ft 463 kts 64°
2026-05-04 05:04 50.85300 9.63882 26969 ft 470 kts 64°
2026-05-04 05:04 50.86766 9.68610 27263 ft 473 kts 64°
2026-05-04 05:04 50.88217 9.73303 27538 ft 475 kts 64°
2026-05-04 05:06 50.98497 10.06904 29507 ft 486 kts 65°
2026-05-04 05:06 50.99977 10.11776 29876 ft 484 kts 65°
2026-05-04 05:06 51.01433 10.16585 30215 ft 484 kts 65°
2026-05-04 05:07 51.02875 10.21358 30541 ft 483 kts 65°
2026-05-04 05:07 51.04332 10.26192 30869 ft 482 kts 65°
2026-05-04 05:07 51.05847 10.30897 31164 ft 483 kts 58°
2026-05-04 05:09 51.26998 10.56192 33247 ft 480 kts 32°
2026-05-04 05:09 51.29783 10.59150 33451 ft 481 kts 32°
2026-05-04 05:10 51.32560 10.62111 33631 ft 482 kts 32°
2026-05-04 05:10 51.35323 10.65058 33820 ft 483 kts 32°
2026-05-04 05:10 51.38138 10.68117 34007 ft 484 kts 35°
2026-05-04 05:10 51.40880 10.71336 34192 ft 485 kts 36°
2026-05-04 05:11 51.43576 10.74608 34377 ft 486 kts 37°
2026-05-04 05:11 51.46289 10.77926 34571 ft 486 kts 37°
2026-05-04 05:11 51.48945 10.81215 34765 ft 487 kts 38°
2026-05-04 05:11 51.51511 10.84716 34923 ft 488 kts 42°
2026-05-04 05:12 51.56264 10.92545 34979 ft 490 kts 50°
2026-05-04 05:12 51.60584 11.01040 34977 ft 490 kts 52°
2026-05-04 05:13 51.64829 11.09553 34972 ft 490 kts 51°
2026-05-04 05:13 51.69092 11.18069 34965 ft 490 kts 51°
2026-05-04 05:14 51.73360 11.26592 34958 ft 490 kts 51°
2026-05-04 05:14 51.77648 11.35177 34956 ft 491 kts 51°
2026-05-04 05:15 51.81904 11.43727 34955 ft 491 kts 51°
2026-05-04 05:15 51.86165 11.52315 34954 ft 491 kts 51°
2026-05-04 05:16 51.90418 11.60920 34953 ft 491 kts 51°
2026-05-04 05:16 51.94655 11.69522 34954 ft 492 kts 52°
2026-05-04 05:17 51.98913 11.78198 34955 ft 492 kts 52°
2026-05-04 05:17 52.03252 11.86777 34955 ft 492 kts 50°
2026-05-04 05:18 52.07629 11.95250 34955 ft 492 kts 50°
2026-05-04 05:18 52.12001 12.03765 34953 ft 492 kts 51°
2026-05-04 05:19 52.16373 12.12333 34954 ft 492 kts 51°
2026-05-04 05:19 52.20717 12.20884 34955 ft 492 kts 51°
2026-05-04 05:20 52.25064 12.29472 34955 ft 492 kts 51°
2026-05-04 05:20 52.29407 12.38079 34955 ft 492 kts 51°
2026-05-04 05:21 52.33717 12.46651 34955 ft 492 kts 51°
2026-05-04 05:21 52.38046 12.55289 34955 ft 492 kts 51°
2026-05-04 05:22 52.42387 12.63981 34955 ft 492 kts 51°
2026-05-04 05:22 52.46701 12.72648 34954 ft 492 kts 51°
2026-05-04 05:23 52.51025 12.81369 34954 ft 492 kts 51°
2026-05-04 05:23 52.55350 12.90119 34955 ft 492 kts 51°
2026-05-04 05:24 52.59638 12.98821 34955 ft 492 kts 52°
2026-05-04 05:24 52.63932 13.07572 34955 ft 492 kts 52°
2026-05-04 05:25 52.68234 13.16368 34954 ft 491 kts 52°
2026-05-04 05:25 52.72486 13.25093 34950 ft 491 kts 52°
2026-05-04 05:26 52.76757 13.33886 34944 ft 491 kts 52°
2026-05-04 05:26 52.81021 13.42695 34937 ft 491 kts 52°
2026-05-04 05:28 52.98046 13.78176 34928 ft 492 kts 52°
2026-05-04 05:29 53.02265 13.87049 34928 ft 492 kts 52°
2026-05-04 05:29 53.06506 13.95998 34928 ft 493 kts 52°
2026-05-04 05:31 53.23339 14.31907 34903 ft 493 kts 54°
2026-05-04 05:32 53.27043 14.41472 34901 ft 492 kts 62°
2026-05-04 05:33 53.31157 14.56996 34901 ft 489 kts 72°
2026-05-04 05:33 53.33433 14.67660 34899 ft 488 kts 73°
2026-05-04 05:34 53.35723 14.78391 34900 ft 488 kts 72°
2026-05-04 05:34 53.37997 14.88996 34900 ft 487 kts 72°
2026-05-04 05:35 53.40279 14.99662 34900 ft 487 kts 72°
2026-05-04 05:35 53.42553 15.10349 34900 ft 486 kts 72°
2026-05-04 05:36 53.44801 15.20963 34899 ft 487 kts 72°
2026-05-04 05:36 53.47054 15.31670 34900 ft 486 kts 72°
2026-05-04 05:37 53.49296 15.42369 34899 ft 487 kts 72°
2026-05-04 05:37 53.51941 15.52818 34811 ft 490 kts 64°
2026-05-04 05:38 53.55373 15.62683 33901 ft 494 kts 57°
2026-05-04 05:38 53.57307 15.67476 33253 ft 495 kts 56°
2026-05-04 05:38 53.59248 15.72217 32562 ft 495 kts 56°
2026-05-04 05:38 53.61172 15.76968 31851 ft 496 kts 56°
2026-05-04 05:39 53.63104 15.81783 31121 ft 497 kts 57°
2026-05-04 05:39 53.66946 15.91433 29612 ft 500 kts 57°
2026-05-04 05:39 53.68887 15.96327 28860 ft 500 kts 56°
2026-05-04 05:40 53.72695 16.05960 27852 ft 489 kts 57°
2026-05-04 05:40 53.74559 16.10689 27352 ft 484 kts 56°
2026-05-04 05:40 53.76405 16.15384 26851 ft 479 kts 56°
2026-05-04 05:41 53.78220 16.20007 26358 ft 474 kts 56°
2026-05-04 05:41 53.80038 16.24647 25856 ft 469 kts 56°
2026-05-04 05:41 53.81805 16.29168 25368 ft 465 kts 56°
2026-05-04 05:41 53.83581 16.33717 24874 ft 460 kts 56°
2026-05-04 05:42 53.85324 16.38191 24386 ft 456 kts 56°
2026-05-04 05:42 53.87063 16.42662 23898 ft 452 kts 56°
2026-05-04 05:42 53.88785 16.47098 23413 ft 448 kts 56°
2026-05-04 05:42 53.90498 16.51520 22924 ft 444 kts 56°
2026-05-04 05:43 53.92178 16.55858 22437 ft 441 kts 56°
2026-05-04 05:43 53.93849 16.60182 21938 ft 438 kts 56°
2026-05-04 05:43 53.95518 16.64510 21443 ft 435 kts 56°
2026-05-04 05:45 54.06835 16.94102 18021 ft 418 kts 57°
2026-05-04 05:45 54.08392 16.98261 17529 ft 416 kts 60°
2026-05-04 05:47 54.11416 17.31122 14112 ft 396 kts 88°
2026-05-04 05:47 54.11668 17.35781 13672 ft 393 kts 87°
2026-05-04 05:47 54.11921 17.40367 13495 ft 382 kts 88°
2026-05-04 05:48 54.12168 17.44896 13326 ft 374 kts 88°
2026-05-04 05:48 54.12402 17.49254 13164 ft 368 kts 88°
2026-05-04 05:48 54.12653 17.53530 12973 ft 362 kts 85°
2026-05-04 05:48 54.13051 17.57782 12704 ft 356 kts 82°
2026-05-04 05:49 54.13486 17.61867 12414 ft 351 kts 82°
2026-05-04 05:49 54.13927 17.65908 12107 ft 346 kts 83°
2026-05-04 05:49 54.14360 17.69932 11798 ft 341 kts 83°
2026-05-04 05:49 54.14783 17.73917 11495 ft 336 kts 83°
2026-05-04 05:51 54.17469 17.99908 8865 ft 302 kts 84°
2026-05-04 05:51 54.17824 18.03426 8400 ft 301 kts 84°
2026-05-04 05:52 54.18179 18.06950 8004 ft 298 kts 83°
2026-05-04 05:52 54.18529 18.10421 7640 ft 298 kts 83°
2026-05-04 05:52 54.18877 18.13877 7294 ft 298 kts 83°
2026-05-04 05:52 54.19230 18.17378 6946 ft 298 kts 82°
2026-05-04 05:53 54.19579 18.20827 6889 ft 295 kts 82°
2026-05-04 05:54 54.21988 18.45080 6967 ft 296 kts 82°
2026-05-04 05:55 54.22331 18.48572 6968 ft 296 kts 82°
2026-05-04 05:55 54.22669 18.52026 6968 ft 296 kts 83°
2026-05-04 05:55 54.23009 18.55506 6919 ft 291 kts 83°
2026-05-04 05:55 54.23334 18.58854 6767 ft 283 kts 83°
2026-05-04 05:56 54.23649 18.62097 6615 ft 275 kts 82°
2026-05-04 05:56 54.23852 18.65313 6448 ft 265 kts 97°
2026-05-04 05:56 54.23467 18.68304 6187 ft 255 kts 116°
2026-05-04 05:56 54.22780 18.71064 5881 ft 253 kts 120°
2026-05-04 05:57 54.22042 18.73781 5582 ft 253 kts 120°
2026-05-04 05:57 54.21446 18.76626 5267 ft 257 kts 100°
2026-05-04 05:57 54.21632 18.79650 4952 ft 261 kts 68°
2026-05-04 05:57 54.22646 18.82149 4652 ft 257 kts 37°
2026-05-04 05:58 54.24146 18.83722 4381 ft 251 kts 19°
2026-05-04 05:58 54.25811 18.84263 4073 ft 241 kts 348°
2026-05-04 05:58 54.27351 18.83401 3798 ft 230 kts 327°
2026-05-04 05:58 54.28603 18.81848 3516 ft 222 kts 307°
2026-05-04 05:59 54.29477 18.79702 3302 ft 216 kts 294°
2026-05-04 05:59 54.30143 18.77428 3207 ft 216 kts 292°
2026-05-04 05:59 54.30761 18.75117 3101 ft 209 kts 290°
2026-05-04 05:59 54.31330 18.72850 2996 ft 200 kts 289°
2026-05-04 06:00 54.31852 18.70716 3084 ft 187 kts 289°
2026-05-04 06:00 54.32339 18.68713 2892 ft 180 kts 289°
2026-05-04 06:00 54.32815 18.66754 2659 ft 173 kts 289°
2026-05-04 06:00 54.33271 18.64884 2437 ft 167 kts 290°
2026-05-04 06:01 54.33708 18.63101 2214 ft 156 kts 290°
2026-05-04 06:01 54.34127 18.61390 2046 ft 152 kts 290°
2026-05-04 06:03 54.36852 18.50287 672 ft 143 kts 292°
2026-05-04 06:03 54.37240 18.48707 501 ft 142 kts 293°
2026-05-04 06:05 54.38119 18.45873 492 ft 8 kts 114°
2026-05-04 06:05 54.38112 18.46061 492 ft 6 kts 45°
2026-05-04 06:05 54.38155 18.46093 492 ft 7 kts 19°
2026-05-04 06:06 54.38176 18.46161 492 ft 7 kts 97°
2026-05-04 06:06 54.38156 18.46247 492 ft 7 kts 116°
2026-05-04 06:06 54.38132 18.46337 492 ft 8 kts 112°
2026-05-04 06:06 54.38128 18.46407 492 ft 3 kts 57°
2026-05-04 06:07 54.38150 18.46434 492 ft 4 kts 22°
2026-05-04 06:07 54.38161 18.46441 492 ft 0 kts 22°